Regional Weather Roundup
Issued by NWS

Home | Current Version | Previous Version | Text Only | Print | Product List | Glossary On
Versions: 1 2 3 4 5 6 7 8 9 10 11 12 13 14 15 16 17 18 19 20 21 22 23 24 25 26 27 28
000
ASUS43 KDMX 200407
RWRIA

WEATHER ROUNDUP FOR IOWA
NATIONAL WEATHER SERVICE DES MOINES IA
1100 PM CDT SAT APR 19 2014

NOTE: "FAIR" INDICATES FEW OR NO CLOUDS BELOW 12,000 FEET WITH NO
SIGNIFICANT WEATHER AND/OR OBSTRUCTIONS TO VISIBILITY.

* - THESE STATIONS ARE NOT NWS STATIONS...THUS NOT UNDER NWS
QUALITY CONTROL.  THEY ALSO DO NOT REPORT WEATHER SUCH
AS PRECIPITATION OR FOG.

IAZ001>003-012>014-020>022-031>034-043>046-200500-
   NORTHWEST IOWA

CITY           SKY/WX    TMP DP  RH WIND       PRES   REMARKS
CARROLL *      CLOUDY    66  45  45 S14       30.02S
CHEROKEE *     CLOUDY    61  48  63 CALM      30.00R
DENISON *      CLOUDY    70  43  37 S16G25    30.00R
LE MARS *      CLOUDY    61  45  55 N5        29.99F
ORANGE CITY *  CLOUDY    63  45  51 NE5       30.00S
SHELDON *      CLOUDY    59  46  63 N8        30.01R
SIOUX CITY     CLOUDY    61  47  59 CALM      29.99R
SPENCER        CLOUDY    60  48  64 NE7       30.01S
STORM LAKE *   CLOUDY    63  45  51 S8        30.01S
$$

IAZ055>058-069>071-079>083-090>094-200500-
   SOUTHWEST IOWA

CITY           SKY/WX    TMP DP  RH WIND       PRES   REMARKS
ATLANTIC *     CLOUDY    64  45  48 S9G15     30.03S
AUDUBON *      PTCLDY    66  41  39 S9        30.05R
CLARINDA *     CLEAR     66  45  45 S9        30.06F
COUNCIL BLFS * CLOUDY    68  46  45 S16G23    30.00S
CRESTON *      PTCLDY    63  45  51 S10       30.08S
HARLAN  *      CLOUDY    68  45  42 S14       30.05S
LAMONI         CLEAR     62  44  51 S8        30.10R
RED OAK *      MOCLDY    66  45  45 S13       30.04S
SHENANDOAH *   CLEAR     64  45  48 SE12      30.04F
$$

IAZ047>049-059>061-072>074-084-200500-
   CENTRAL IOWA

CITY           SKY/WX    TMP DP  RH WIND       PRES   REMARKS
AMES           CLOUDY    66  44  45 S10       30.06S
ANKENY *       CLOUDY    64  45  48 S8        30.07S
CHARITON *     CLEAR     61  45  55 S10       30.11R
DES MOINES     MOCLDY    66  44  45 S9        30.08S
GRINNELL*      MOCLDY    61  43  51 S14       30.10S
KNOXVILLE *    CLEAR     61  43  51 S7        30.10S
MARSHALLTOWN   CLOUDY    66  44  45 S10       30.08R
NEWTON *       PTCLDY    61  45  55 S12       30.10S
PELLA *        CLEAR     61  45  55 SE6       30.11S
PERRY *        CLOUDY    66  43  42 S13       30.05R
$$

IAZ004>006-015-016-023>025-035-036-200500-
   NORTH CENTRAL IOWA

CITY           SKY/WX    TMP DP  RH WIND       PRES   REMARKS
ALGONA *       CLOUDY    66  43  42 S14       30.02R
CLARION *      CLOUDY    64  45  48 S13       30.04R
ESTHERVILLE    CLOUDY    57  49  74 N6        30.01S
FORT DODGE *   CLOUDY    68  45  42 S14G21    30.04S
MASON CITY     CLOUDY    60  47  61 S9        30.05R
FOREST CITY *  CLOUDY    61  45  55 S9        30.02S
IOWA FALLS *   CLOUDY    63  46  55 S9        30.07R
$$

IAZ007>011-017>019-026>030-037>042-050>054-066-200500-
   NORTHEAST IOWA

CITY           SKY/WX    TMP DP  RH WIND       PRES   REMARKS
CEDAR RAPIDS   MOCLDY    58  41  53 S8        30.11S
CHARLES CITY * CLOUDY    63  45  51 S12       30.07S
CLINTON *      PTCLDY    57  36  44 SE12      30.18S
DECORAH *      CLOUDY    61  43  51 S12G18    30.07F
DUBUQUE        CLOUDY    57  36  45 S13       30.15R
MONTICELLO *   CLEAR     57  39  51 SE8       30.13S
OELWEIN *      CLOUDY   N/A N/A N/A S12       30.10F
WATERLOO       CLOUDY    63  44  50 S12       30.08S
$$

IAZ064-065-067-068-078-200500-
   EAST CENTRAL IOWA

CITY           SKY/WX    TMP DP  RH WIND       PRES   REMARKS
DAVENPORT      PTCLDY    59  35  40 S13       30.16F
IOWA CITY      CLEAR     58  41  53 SE3       30.14R
MT. PLEASANT * CLEAR     59  37  44 SE9       30.15R
MUSCATINE *    CLEAR     59  37  44 SE5       30.15R
QUAD CITIES    PTCLDY    55  35  47 S9        30.15F
$$

IAZ062-063-075>077-085>089-095>099-200500-
   SOUTHEAST IOWA

CITY           SKY/WX    TMP DP  RH WIND       PRES   REMARKS
BURLINGTON     PTCLDY    62  38  40 SE9       30.15S
FAIRFIELD *    CLEAR     61  39  44 S12       30.13S
FORT MADISON * CLEAR     63  39  42 S8        30.16S
KEOKUK *       CLEAR     63  39  42 SE9       30.14S
OSKALOOSA *      N/A     55  41  58 S9        30.12R
CENTERVILLE *  CLEAR     59  41  51 SE3       30.14R
OTTUMWA        CLEAR     60  41  49 S9        30.12R
WASHINGTON *   CLEAR     61  39  44 S12       30.13S
$$

ABBREVIATIONS USED IN REMARKS
   TC - TEMPERATURES IN CELSIUS
  WCI - WIND CHILL INDEX
   HX - HEAT INDEX
  VSB - VISIBILITY
$$




USA.gov is the U.S. government's official web portal to all federal, state and local government web resources and services.